www.pogodaiklimat.ru
ПОГОДА в Брэдфорде
Время
и дата
14:53 30.06
15:53 30.06
16:53 30.06
17:53 30.06
18:53 30.07
19:53 30.06
20:53 30.06
21:53 30.06
22:53 30.06
23:53 30.06
00:53 01.07
01:53 01.07
02:53 01.07
03:53 01.07
04:53 01.07
05:53 01.07
06:53 01.07
07:53 01.07
08:53 01.07
09:53 01.07
10:53 01.07
11:53 01.07
12:53 01.07
13:53 01.07
14:53 01.07
15:53 01.07
16:53 01.07
17:53 01.07
18:53 01.07
19:09 01.07
19:19 01.07
19:41 01.07
19:47 01.07
19:53 01.07
20:10 01.07
20:17 01.07
20:25 01.07
20:53 01.07
20:57 01.07
21:02 01.07
21:12 01.07
21:17 01.07
21:38 01.07
21:53 01.07
22:07 01.07
22:21 01.07
22:31 01.07
22:53 01.07
Ветер
(напр.,м/с)
Видим. Явления Облачность Т
(С)
Тd
(С)
f
(%)
Тe
(С)
Тes
(С)
Комфортность P
(гПа)
Po
(гПа)
Тmin
(С)
Tmax
(С)
R
(мм)
R24
(мм)
S
(см)
нст 1 16 км 5/5 1800 м +27.8 +11.7 37 +29 +36 жарко 1020.7 945.2
ЮЗ 2 16 км 5/5 1950 м +27.8 +11.7 37 +29 +32 жарко 1020.1 944.6
ЮЗ 1 16 км ясно +27.2 +11.1 37 +28 +36 жарко 1019.8 944.2
ЮЗ 1 16 км ясно +27.2 +11.1 37 +28 +32 жарко 1019.7 944.2
штиль 0 16 км ясно +26.1 +11.7 41 +27 +29 жарко 1019.6 944.2 +26.1 +28.3
штиль 0 16 км ясно +21.1 +13.3 61 +23 +24 комфорт 1019.4 944.2
штиль 0 16 км ясно +17.8 +12.8 73 +18 +18 1019.5 944.2
штиль 0 16 км ясно +15.6 +12.8 83 +15 +15 1019.5 944.2
ЮВ 1 16 км ясно +16.1 +12.2 78 +16 +16 1019.1 943.9
штиль 0 16 км ясно +18.3 +11.7 65 +19 +19 1018.8 943.9
Ю 1 16 км ясно +20.0 +11.7 59 +22 +22 комфорт 1018.5 943.6 +15.0 +26.1
Ю 1 16 км ясно +18.9 +11.7 63 +20 +20 1018.2 943.3
штиль 0 16 км ясно +17.8 +11.7 67 +18 +18 1017.5 942.7
Ю 1 16 км ясно +17.8 +11.7 67 +18 +18 1017.2 942.4
штиль 0 16 км ясно +18.3 +11.7 65 +19 +19 1017.3 942.4
нст 1 16 км ясно +17.8 +12.8 73 +18 +18 1017.0 942.4
Ю 1 16 км ясно +20.6 +12.8 61 +24 +25 комфорт 1017.1 942.4 +15.6 +20.6
нст 1 16 км ясно +22.8 +13.9 57 +26 +30 жарко 1017.3 942.4
З 2 16 км 2/0 2250 м
[Ac]
+25.6 +14.4 50 +28 +32 жарко 1017.0 942.0
ЮЗ 2 16 км ясно +25.6 +15.6 54 +29 +36 душно 1016.7 941.7
нст 1 16 км 2/2 1500 м +27.2 +16.1 51 +31 +41 душно 1016.6 941.7
З 2
{4}
16 км 2/2 1500 м +28.3 +14.4 43 +31 +41 душно 1015.7 941.1
ЮЗ 2
{3}
16 км ясно +29.4 +11.7 34 +30 +44 жарко 1014.4 940.2 +20.6 +29.4
З 2
{4}
16 км ясно +30.0 +11.1 31 +30 +41 жарко 1014.2 939.9
З 3
{4}
16 км ясно +29.4 +11.7 34 +30 +37 жарко 1014.1 939.5
нст 1
{4}
16 км 2/0 3600 м
[Ac]
+28.9 +12.2 36 +30 +40 жарко 1013.6 939.2
нст 1 16 км 2/0 3000 м
[Ac]
+28.3 +12.8 38 +30 +38 жарко 1013.2 938.9
ЮВ 1 16 км 8/0 2850 м
[Ac]
+27.2 +14.4 45 +29 +32 жарко 1012.9 938.3
ЮВ 1 16 км 10/0 2250 м
[Ac]
+26.1 +15.0 50 +29 +29 жарко 1012.6 938.3 +26.1 +30.0
С 3
{4}
16 км гроза 10/5 1800 м
[Ac]
+24.4 +15.6 58 +27 +27 жарко 938.6
СЗ 5
{6}
14 км гроза 10/8 870 м
[Ac]
+22.2 +16.7 71 +27 +27 душно 939.5
С 2 10 км гроза, слабый дождь, дымка 10/10 180 м +19.4 +17.8 90 +22 +22 комфорт 939.2
С 2 11 км слабый дождь 10/10 180 м +19.0 +18.0 94 +20 +20 939.2
С 2 13 км слабый дождь 10/8 180 м
[Ac]
+19.4 +17.8 90 +22 +22 комфорт 1013.7 938.9
С 3 4 км дождь, дымка 10/8 180 м
[Ac]
+19.4 +17.8 90 +21 +21 комфорт 939.2
С 3 4 км гроза, сильный дождь, дымка 10/8 120 м
[Ac]
+19.4 +17.8 90 +21 +21 комфорт 939.5
С 2 2 км гроза, сильный дождь, дымка 10/10 120 м +19.4 +17.8 90 +21 +21 комфорт 939.9
СЗ 1 3 км гроза с сильным дождем, дымка 10/10 180 м +19.4 +17.8 90 +22 +22 комфорт 1015.0 940.5
СЗ 2 4 км гроза с дождем, дымка 10/10 180 м +19.4 +17.8 90 +22 +22 комфорт 940.5
СЗ 1 4 км дождь, дымка 10/8 240 м
[Ac]
+19.4 +17.8 90 +22 +22 комфорт 940.8
З 1 5 км слабый дождь, дымка 10/10 300 м +19.4 +17.8 90 +22 +22 комфорт 941.1
З 1 5 км гроза, дождь, дымка 10/10 180 м +19.4 +17.8 90 +22 +22 комфорт 941.1
СЗ 2 6 км дождь, дымка 10/8 300 м
[Ac]
+19.4 +17.2 87 +21 +21 комфорт 941.1
СЗ 1 6 км слабый дождь, дымка 10/8 300 м
[Ac]
+19.4 +17.2 87 +22 +22 комфорт 1015.5 940.8 24.1
З 1 8 км слабый дождь, дымка 10/8 240 м
[Ac]
+19.4 +17.2 87 +22 +22 комфорт 940.8
штиль 0 3 км дождь, дымка 10/5 300 м
[Ac]
+19.4 +17.2 87 +21 +21 комфорт 940.2
ЮВ 1 8 км слабый дождь, дымка 10/2 1290 м
[Ac]
+18.9 +17.2 90 +21 +21 комфорт 939.9
ЮВ 1 8 км дымка 10/0 2400 м
[Ac]
+18.9 +17.2 90 +21 +21 комфорт 1013.5 939.2
Местоположение метеостанции Bradford Regional Airport: широта 41.7986 долгота -78.6358 высота над уровнем моря 653 м.
В архиве по умолчанию представлена погода в Брэдфорде за последние 1-2 суток. Обновление информации о фактической погоде в базе происходит ежечасно! Архивные данные за месяц целиком и за предыдущие месяцы Вы можете получить, выбрав интересующий диапазон дат из раскрывающегося списка и нажав кнопку "Ввод!".
Внимание! Архив погоды МЕТАР в базе сайта по станциям, не включенным в климатический монитор, хранится не более 60 дней. Нет смысла пытаться выбрать более раннюю дату.
*Определитесь, кто Вы:
Внимание! Время в таблицах - местное (без учета летнего времени). Для получения всемирного времени необходимо вычесть поправку, которая равна -5 ч.
Смотрите также архив погоды в соседних городах и на ближайших метеорологических станциях:
Партнеры нашего сайта:      
Пояснения к столбцам:
  • Ветер - указаны скорость ветра в м/с - средняя за 10 мин, порывы в срок и между сроками (в фигурных скобках) и направление, откуда дует ветер: С - северный,
  • СВ - северо-восточный, В - восточный, ЮВ - юго-восточный, Ю - южный, ЮЗ - юго-западный, З - западный, СЗ - северо-западный.
  • Видимость - горизонтальная дальность видимости в метрах или километрах. При видимости от 1 до 10 км при отсутствии осадков обычно наблюдается дымка, при ухудшении видимости до 1 км и менее - туман. В сухую погоду видимость может ухудшаться дымом, пылью или мглою.
  • Явления - указаны атмосферные явления, наблюдавшиеся в срок или в последний час перед сроком; фигурными скобками обозначены явления, наблюдавшиеся между сроками (за 1-3 часа до срока); квадратными скобками обозначены град или гололедные отложения с указанием их диаметра в мм.
  • Облачность - указаны через наклонную черту общая и нижняя облачность в баллах и высота нижней границы облаков в метрах; квадратными скобками обозначены формы облаков: Ci - перистые, Cs - перисто-слоистые, Cc - перисто-кучевые, Ac - высококучевые, As - высокослоистые, Sc - слоисто-кучевые, Ns - слоисто-дождевые, Cu - кучевые, Cb - кучево-дождевые. Подробнее классификацию облаков см. в Атласе облаков (PDF).
  • T - Температура воздуха - температура, измеренная на высоте 2 м над землей.
  • Td - Температура точки росы - температура, при понижении до которой содержащийся в воздухе водяной пар достигнет насыщения.
  • f - Относительная влажность воздуха - влажноcть воздуха, измеренная на высоте 2 м над землей.
  • Te - Эффективная температура - температура, которую ощущает одетый по сезону человек в тени. Характеристика душности погоды. При расчете учитывается влияние влажности воздуха и скорости ветра на теплоощущения человека.
  • Tes - Эффективная температура на солнце - температура, которую ощущает человек, с поправкой на солнечный нагрев. Характеристика знойности погоды. Зависит от высоты солнца над горизонтом, облачности и скорости ветра. Ночью, в пасмурную погоду, а также при ветре 12 м/с и более поправка равна нулю.
  • P - Атмосферное давление - приведенное к уровню моря атмосферное давление.
  • Po - Атмосферное давление - измеренное на уровне метеостанции атмосферное давление.
  • Tmin - Минимальная температура - минимум температуры воздуха на высоте 2 м над землей.
  • Tmax - Максимальная температура - максимум температуры воздуха на высоте 2 м над землей.
  • R - Количество осадков - Количество выпавших осадков за период времени, мм. При наведении курсора мыши на число - период времени, за который выпало указанное количество осадков.
  • R24 - Количество осадков - Количество выпавших осадков за 24 часа, мм.
  • S - Снежный покров - Высота снежного покрова, см. При наведении курсора мыши на число - состояние снежного покрова и степень покрытия местности в баллах.